| time (UTC) | temp C | wind direction | speed KPH | gust KPH | rain 1hr cm | rain 24hr cm | rain mn cm | humidity % | barometer mb |
| 20260506015050 | 10 | 12 | 1.6 | 14.5 | 0.00 | 0.00 | 0.00 | 55 | 1010.8 |
| 20260506014551 | 10 | 11 | 3.2 | 17.7 | 0.00 | 0.00 | 0.00 | 55 | 1010.6 |
| 20260506014050 | 10 | 350 | 12.9 | 20.9 | 0.00 | 0.00 | 0.00 | 55 | 1010.6 |
| 20260506013550 | 10 | 312 | 8.0 | 20.9 | 0.00 | 0.00 | 0.00 | 55 | 1010.5 |
| 20260506013050 | 10 | 318 | 3.2 | 19.3 | 0.00 | 0.00 | 0.00 | 55 | 1010.1 |
| 20260506012050 | 10 | 17 | 0.0 | 17.7 | 0.00 | 0.00 | 0.00 | 55 | 1010.0 |
| 20260506011051 | 10 | 355 | 0.0 | 16.1 | 0.00 | 0.00 | 0.00 | 55 | 1010.1 |
| 20260506010550 | 10 | 38 | 0.0 | 14.5 | 0.00 | 0.00 | 0.00 | 55 | 1010.2 |
| 20260506010050 | 10 | 360 | 1.6 | 20.9 | 0.00 | 0.00 | 0.00 | 55 | 1010.0 |
| 20260506005550 | 10 | 94 | 3.2 | 17.7 | 0.00 | 0.00 | 0.00 | 54 | 1009.8 |
| 20260506005050 | 10 | 46 | 1.6 | 17.7 | 0.00 | 0.00 | 0.00 | 54 | 1010.0 |
| 20260506004550 | 10 | 355 | 1.6 | 12.9 | 0.00 | 0.00 | 0.00 | 54 | 1010.0 |
| 20260506004051 | 10 | 345 | 0.0 | 17.7 | 0.00 | 0.00 | 0.00 | 54 | 1009.9 |
| 20260506003550 | 10 | 17 | 8.0 | 17.7 | 0.00 | 0.00 | 0.00 | 54 | 1009.9 |
| 20260506003050 | 10 | 19 | 4.8 | 17.7 | 0.00 | 0.00 | 0.00 | 53 | 1010.1 |
| 20260506002550 | 11 | 330 | 6.4 | 14.5 | 0.00 | 0.00 | 0.00 | 53 | 1010.0 |
| 20260506002051 | 11 | 49 | 4.8 | 14.5 | 0.00 | 0.00 | 0.00 | 53 | 1009.8 |
| 20260506001550 | 11 | 46 | 1.6 | 20.9 | 0.00 | 0.00 | 0.00 | 53 | 1009.2 |
| 20260506000550 | 11 | 323 | 16.1 | 20.9 | 0.00 | 0.00 | 0.00 | 52 | 1009.6 |
| 20260506000050 | 11 | 15 | 4.8 | 19.3 | 0.00 | 0.00 | 0.00 | 52 | 1009.5 |
| 20260505235550 | 11 | 32 | 16.1 | 19.3 | 0.00 | 0.00 | 0.00 | 52 | 1009.5 |
| 20260505235050 | 11 | 67 | 4.8 | 9.7 | 0.00 | 0.00 | 0.00 | 52 | 1009.6 |
| 20260505234551 | 11 | 346 | 4.8 | 19.3 | 0.00 | 0.00 | 0.00 | 52 | 1009.6 |
| 20260505234050 | 11 | 355 | 1.6 | 25.7 | 0.00 | 0.00 | 0.00 | 53 | 1009.6 |
| 20260505233550 | 11 | 360 | 8.0 | 25.7 | 0.00 | 0.00 | 0.00 | 52 | 1009.4 |
| 20260505232550 | 11 | 13 | 1.6 | 16.1 | 0.00 | 0.00 | 0.00 | 52 | 1009.2 |
| 20260505232050 | 11 | 25 | 4.8 | 25.7 | 0.00 | 0.00 | 0.00 | 52 | 1009.4 |
| 20260505231550 | 11 | 346 | 24.1 | 25.7 | 0.00 | 0.00 | 0.00 | 52 | 1009.1 |
| 20260505231050 | 11 | 28 | 4.8 | 20.9 | 0.00 | 0.00 | 0.00 | 52 | 1009.3 |
| 20260505230550 | 11 | 22 | 6.4 | 25.7 | 0.00 | 0.00 | 0.00 | 52 | 1009.0 |
| 20260505230050 | 11 | 355 | 4.8 | 25.7 | 0.00 | 0.00 | 0.00 | 52 | 1008.9 |
| 20260505225550 | 11 | 279 | 6.4 | 19.3 | 0.00 | 0.00 | 0.00 | 52 | 1008.7 |
| 20260505225050 | 11 | 40 | 8.0 | 27.4 | 0.00 | 0.00 | 0.00 | 52 | 1008.8 |
| 20260505224551 | 11 | 5 | 1.6 | 16.1 | 0.00 | 0.00 | 0.00 | 52 | 1008.3 |
| 20260505224050 | 11 | 97 | 4.8 | 20.9 | 0.00 | 0.00 | 0.00 | 52 | 1008.3 |
| 20260505223050 | 11 | 103 | 14.5 | 19.3 | 0.00 | 0.00 | 0.00 | 51 | 1008.6 |
| 20260505222550 | 11 | 315 | 3.2 | 16.1 | 0.00 | 0.00 | 0.00 | 52 | 1008.1 |
| 20260505222050 | 11 | 355 | 4.8 | 17.7 | 0.00 | 0.00 | 0.00 | 52 | 1007.8 |
| 20260505221550 | 11 | 22 | 9.7 | 17.7 | 0.00 | 0.00 | 0.00 | 52 | 1007.8 |
| 20260505221050 | 11 | 301 | 11.3 | 22.5 | 0.00 | 0.00 | 0.00 | 52 | 1007.6 |
| 20260505220050 | 11 | 315 | 19.3 | 22.5 | 0.00 | 0.00 | 0.00 | 52 | 1008.0 |
| 20260505215550 | 12 | 130 | 3.2 | 29.0 | 0.00 | 0.00 | 0.00 | 52 | 1008.0 |
| 20260505215050 | 12 | 44 | 17.7 | 29.0 | 0.00 | 0.00 | 0.00 | 53 | 1007.9 |
| 20260505214551 | 12 | 360 | 4.8 | 24.1 | 0.00 | 0.00 | 0.00 | 52 | 1007.8 |
| 20260505214051 | 12 | 23 | 3.2 | 20.9 | 0.00 | 0.00 | 0.00 | 52 | 1007.7 |
| 20260505213550 | 12 | 313 | 6.4 | 16.1 | 0.00 | 0.00 | 0.00 | 52 | 1008.0 |
| 20260505213051 | 12 | 344 | 1.6 | 22.5 | 0.00 | 0.00 | 0.00 | 53 | 1008.1 |
| 20260505212550 | 12 | 355 | 9.7 | 22.5 | 0.00 | 0.00 | 0.00 | 52 | 1008.0 |
| 20260505212050 | 12 | 340 | 6.4 | 20.9 | 0.00 | 0.00 | 0.00 | 52 | 1007.8 |
| 20260505211553 | 12 | 311 | 3.2 | 22.5 | 0.00 | 0.00 | 0.00 | 53 | 1007.8 |
| 20260505211050 | 12 | 61 | 12.9 | 17.7 | 0.00 | 0.00 | 0.00 | 53 | 1007.5 |
| 20260505210550 | 12 | 355 | 6.4 | 16.1 | 0.00 | 0.00 | 0.00 | 54 | 1007.5 |
| 20260505210050 | 12 | 5 | 3.2 | 20.9 | 0.00 | 0.00 | 0.00 | 54 | 1007.3 |
| 20260505205549 | 12 | 10 | 0.0 | 17.7 | 0.00 | 0.00 | 0.00 | 54 | 1007.4 |
| 20260505205050 | 12 | 150 | 1.6 | 17.7 | 0.00 | 0.00 | 0.00 | 54 | 1007.5 |
| 20260505204050 | 12 | 24 | 9.7 | 20.9 | 0.00 | 0.00 | 0.00 | 55 | 1007.7 |
| 20260505203550 | 12 | 318 | 8.0 | 20.9 | 0.00 | 0.00 | 0.00 | 55 | 1007.7 |
| 20260505203051 | 12 | 15 | 3.2 | 20.9 | 0.00 | 0.00 | 0.00 | 55 | 1007.7 |
| 20260505202550 | 12 | 28 | 14.5 | 19.3 | 0.00 | 0.00 | 0.00 | 55 | 1007.6 |
| 20260505202051 | 12 | 58 | 3.2 | 19.3 | 0.00 | 0.00 | 0.00 | 55 | 1007.5 |
| 20260505201550 | 12 | 342 | 6.4 | 22.5 | 0.00 | 0.00 | 0.00 | 55 | 1007.2 |
| 20260505200550 | 12 | 38 | 3.2 | 29.0 | 0.00 | 0.00 | 0.00 | 54 | 1007.3 |
| 20260505200051 | 12 | 336 | 4.8 | 29.0 | 0.00 | 0.00 | 0.00 | 54 | 1007.3 |
| 20260505195550 | 12 | 5 | 3.2 | 19.3 | 0.00 | 0.00 | 0.00 | 55 | 1007.3 |
| 20260505195050 | 12 | 351 | 19.3 | 19.3 | 0.00 | 0.00 | 0.00 | 55 | 1007.3 |
| 20260505194550 | 12 | 328 | 3.2 | 30.6 | 0.00 | 0.00 | 0.00 | 55 | 1007.4 |
| 20260505193051 | 12 | 62 | 8.0 | 22.5 | 0.00 | 0.00 | 0.00 | 55 | 1007.3 |
| 20260505192549 | 12 | 349 | 3.2 | 16.1 | 0.00 | 0.00 | 0.00 | 56 | 1007.2 |
| 20260505192050 | 12 | 51 | 3.2 | 19.3 | 0.00 | 0.00 | 0.00 | 56 | 1007.1 |
| 20260505191550 | 12 | 344 | 3.2 | 22.5 | 0.00 | 0.00 | 0.00 | 56 | 1006.8 |
| 20260505191049 | 12 | 52 | 11.3 | 22.5 | 0.00 | 0.00 | 0.00 | 56 | 1006.8 |
| 20260505190051 | 13 | 300 | 8.0 | 17.7 | 0.00 | 0.00 | 0.00 | 56 | 1006.8 |
| 20260505184550 | 13 | 58 | 14.5 | 24.1 | 0.00 | 0.00 | 0.00 | 56 | 1006.7 |
| 20260505184050 | 13 | 36 | 6.4 | 24.1 | 0.00 | 0.00 | 0.00 | 56 | 1006.5 |
| 20260505183050 | 13 | 346 | 6.4 | 24.1 | 0.00 | 0.00 | 0.00 | 57 | 1006.6 |
| 20260505182550 | 13 | 24 | 4.8 | 25.7 | 0.00 | 0.00 | 0.00 | 57 | 1006.6 |
| 20260505181550 | 13 | 28 | 3.2 | 20.9 | 0.00 | 0.00 | 0.00 | 58 | 1006.8 |
| 20260505181050 | 13 | 15 | 1.6 | 24.1 | 0.00 | 0.00 | 0.00 | 58 | 1006.6 |
| 20260505180549 | 13 | 38 | 4.8 | 24.1 | 0.00 | 0.00 | 0.00 | 58 | 1006.7 |
| 20260505175550 | 13 | 113 | 3.2 | 27.4 | 0.00 | 0.00 | 0.00 | 58 | 1006.1 |
| 20260505175050 | 13 | 33 | 1.6 | 20.9 | 0.00 | 0.00 | 0.00 | 58 | 1005.6 |
| 20260505174551 | 13 | 93 | 4.8 | 19.3 | 0.00 | 0.00 | 0.00 | 58 | 1005.7 |
| 20260505174049 | 13 | 65 | 3.2 | 22.5 | 0.00 | 0.00 | 0.00 | 58 | 1005.9 |
| 20260505172550 | 13 | 113 | 11.3 | 20.9 | 0.00 | 0.00 | 0.00 | 58 | 1005.8 |
| 20260505172050 | 13 | 323 | 3.2 | 25.7 | 0.00 | 0.00 | 0.00 | 58 | 1005.8 |
| 20260505171551 | 13 | 76 | 4.8 | 25.7 | 0.00 | 0.00 | 0.00 | 58 | 1005.9 |
| 20260505171049 | 13 | 50 | 3.2 | 22.5 | 0.00 | 0.00 | 0.00 | 58 | 1005.9 |
| 20260505170549 | 13 | 355 | 4.8 | 24.1 | 0.00 | 0.00 | 0.00 | 58 | 1005.5 |
| 20260505170050 | 14 | 76 | 1.6 | 25.7 | 0.00 | 0.00 | 0.00 | 58 | 1005.3 |
| 20260505165550 | 14 | 360 | 6.4 | 25.7 | 0.00 | 0.00 | 0.00 | 58 | 1005.2 |
| 20260505165051 | 14 | 334 | 8.0 | 25.7 | 0.00 | 0.00 | 0.00 | 58 | 1005.3 |
| 20260505164551 | 14 | 15 | 3.2 | 25.7 | 0.00 | 0.00 | 0.00 | 58 | 1005.0 |
| 20260505164050 | 15 | 312 | 3.2 | 24.1 | 0.00 | 0.00 | 0.00 | 58 | 1005.0 |
| 20260505163551 | 15 | 82 | 6.4 | 24.1 | 0.00 | 0.00 | 0.00 | 58 | 1005.0 |
| 20260505163050 | 15 | 27 | 1.6 | 22.5 | 0.00 | 0.00 | 0.00 | 58 | 1004.9 |
| 20260505162549 | 15 | 5 | 9.7 | 16.1 | 0.00 | 0.00 | 0.00 | 58 | 1004.9 |
| 20260505162050 | 15 | 25 | 4.8 | 16.1 | 0.00 | 0.00 | 0.00 | 58 | 1005.0 |
| 20260505161049 | 16 | 310 | 11.3 | 20.9 | 0.00 | 0.00 | 0.00 | 57 | 1004.6 |
| 20260505160550 | 16 | 29 | 6.4 | 17.7 | 0.00 | 0.00 | 0.00 | 57 | 1004.6 |
| 20260505153050 | 19 | 22 | 0.0 | 16.1 | 0.00 | 0.00 | 0.00 | 56 | 1003.7 |
| 20260505152049 | 20 | 346 | 6.4 | 14.5 | 0.00 | 0.00 | 0.00 | 54 | 1003.7 |
| 20260505150549 | 21 | 153 | 0.0 | 0.0 | 0.00 | 0.00 | 0.00 | 54 | 1003.3 |
| 20260505140550 | 20 | 150 | 12.9 | 14.5 | 0.00 | 0.00 | 0.00 | 56 | 1002.7 |
| 20260505124049 | 18 | 153 | 0.0 | 9.7 | 0.00 | 0.00 | 0.00 | 57 | 1003.3 |
| 20260505123549 | 18 | 153 | 0.0 | 8.0 | 0.00 | 0.00 | 0.00 | 57 | 1003.1 |
| 20260505123050 | 18 | 179 | 1.6 | 12.9 | 0.00 | 0.00 | 0.00 | 57 | 1003.1 |
| 20260505122551 | 18 | 128 | 1.6 | 12.9 | 0.00 | 0.00 | 0.00 | 57 | 1002.9 |
| 20260505122049 | 18 | 153 | 3.2 | 11.3 | 0.00 | 0.00 | 0.00 | 57 | 1002.8 |
| 20260505121551 | 18 | 165 | 0.0 | 6.4 | 0.00 | 0.00 | 0.00 | 57 | 1002.8 |
| 20260505121049 | 18 | 178 | 0.0 | 4.8 | 0.00 | 0.00 | 0.00 | 57 | 1002.8 |
| 20260505120549 | 18 | 121 | 0.0 | 4.8 | 0.00 | 0.00 | 0.00 | 57 | 1002.9 |
| 20260505120050 | 18 | 120 | 0.0 | 12.9 | 0.00 | 0.00 | 0.00 | 57 | 1002.8 |
| 20260505115549 | 18 | 119 | 0.0 | 12.9 | 0.00 | 0.00 | 0.00 | 57 | 1002.8 |
| 20260505115050 | 18 | 140 | 0.0 | 11.3 | 0.00 | 0.00 | 0.00 | 57 | 1002.7 |
| 20260505114551 | 18 | 89 | 0.0 | 4.8 | 0.00 | 0.00 | 0.00 | 57 | 1002.7 |
| 20260505114049 | 18 | 152 | 3.2 | 4.8 | 0.00 | 0.00 | 0.00 | 57 | 1002.9 |
| 20260505113549 | 18 | 142 | 0.0 | 4.8 | 0.00 | 0.00 | 0.00 | 57 | 1002.7 |
| 20260505113050 | 18 | 142 | 0.0 | 4.8 | 0.00 | 0.00 | 0.00 | 57 | 1002.8 |
| 20260505111551 | 18 | 18 | 0.0 | 3.2 | 0.00 | 0.00 | 0.00 | 57 | 1002.5 |
| 20260505111049 | 18 | 18 | 0.0 | 3.2 | 0.00 | 0.00 | 0.00 | 57 | 1002.3 |
| 20260505110549 | 18 | 19 | 0.0 | 6.4 | 0.00 | 0.00 | 0.00 | 57 | 1002.2 |
| 20260505101550 | 18 | 139 | 3.2 | 6.4 | 0.00 | 0.00 | 0.00 | 57 | 1001.6 |
| 20260505101049 | 18 | 161 | 6.4 | 9.7 | 0.00 | 0.00 | 0.00 | 57 | 1001.5 |
| 20260505100549 | 18 | 157 | 0.0 | 9.7 | 0.00 | 0.00 | 0.00 | 58 | 1001.5 |
| 20260505100050 | 18 | 158 | 0.0 | 3.2 | 0.00 | 0.00 | 0.00 | 58 | 1001.5 |
| 20260505095049 | 18 | 167 | 0.0 | 4.8 | 0.00 | 0.00 | 0.00 | 58 | 1001.3 |
| 20260505094550 | 18 | 150 | 1.6 | 8.0 | 0.00 | 0.00 | 0.00 | 58 | 1001.4 |
| 20260505094050 | 18 | 154 | 0.0 | 8.0 | 0.00 | 0.00 | 0.00 | 58 | 1001.5 |
| 20260505093549 | 18 | 141 | 3.2 | 6.4 | 0.00 | 0.00 | 0.00 | 58 | 1001.4 |
| 20260505093050 | 18 | 140 | 0.0 | 6.4 | 0.00 | 0.00 | 0.00 | 58 | 1001.5 |
| 20260505092550 | 18 | 139 | 1.6 | 6.4 | 0.00 | 0.00 | 0.00 | 58 | 1001.5 |
| 20260505091551 | 18 | 148 | 0.0 | 8.0 | 0.00 | 0.00 | 0.00 | 58 | 1001.5 |
| 20260505091049 | 18 | 169 | 3.2 | 6.4 | 0.00 | 0.00 | 0.00 | 58 | 1001.5 |
| 20260505090549 | 19 | 180 | 3.2 | 8.0 | 0.00 | 0.00 | 0.00 | 57 | 1001.6 |
| 20260505090050 | 19 | 216 | 0.0 | 4.8 | 0.00 | 0.00 | 0.00 | 57 | 1001.7 |
| 20260505085549 | 19 | 168 | 1.6 | 3.2 | 0.00 | 0.00 | 0.00 | 57 | 1001.8 |
| 20260505085049 | 19 | 157 | 0.0 | 8.0 | 0.00 | 0.00 | 0.00 | 57 | 1001.7 |
| 20260505084550 | 19 | 163 | 3.2 | 8.0 | 0.00 | 0.00 | 0.00 | 56 | 1001.7 |
| 20260505084049 | 20 | 162 | 6.4 | 6.4 | 0.00 | 0.00 | 0.00 | 56 | 1001.6 |
| 20260505083550 | 20 | 175 | 4.8 | 6.4 | 0.00 | 0.00 | 0.00 | 56 | 1001.6 |
| 20260505083050 | 20 | 139 | 0.0 | 6.4 | 0.00 | 0.00 | 0.00 | 56 | 1001.7 |
| 20260505082550 | 20 | 162 | 0.0 | 9.7 | 0.00 | 0.00 | 0.00 | 56 | 1001.9 |
| 20260505082051 | 20 | 167 | 0.0 | 9.7 | 0.00 | 0.00 | 0.00 | 56 | 1001.8 |
| 20260505081549 | 20 | 173 | 1.6 | 4.8 | 0.00 | 0.00 | 0.00 | 56 | 1001.8 |
| 20260505080549 | 20 | 190 | 1.6 | 3.2 | 0.00 | 0.00 | 0.00 | 56 | 1001.8 |
| 20260505080050 | 20 | 190 | 0.0 | 4.8 | 0.00 | 0.00 | 0.00 | 56 | 1001.7 |
| 20260505075549 | 20 | 188 | 0.0 | 4.8 | 0.00 | 0.00 | 0.00 | 55 | 1001.9 |
| 20260505075049 | 20 | 126 | 0.0 | 3.2 | 0.00 | 0.00 | 0.00 | 55 | 1002.0 |
| 20260505074549 | 20 | 125 | 0.0 | 3.2 | 0.00 | 0.00 | 0.00 | 55 | 1002.2 |
| 20260505074049 | 20 | 119 | 0.0 | 3.2 | 0.00 | 0.00 | 0.00 | 55 | 1002.4 |
| 20260505073549 | 20 | 119 | 0.0 | 4.8 | 0.00 | 0.00 | 0.00 | 55 | 1002.3 |
| 20260505073049 | 20 | 124 | 0.0 | 4.8 | 0.00 | 0.00 | 0.00 | 55 | 1002.5 |
| 20260505072550 | 20 | 128 | 0.0 | 1.6 | 0.00 | 0.00 | 0.00 | 55 | 1002.6 |
| 20260505072049 | 20 | 127 | 0.0 | 1.6 | 0.00 | 0.00 | 0.00 | 55 | 1002.5 |
| 20260505071049 | 20 | 131 | 0.0 | 1.6 | 0.00 | 0.00 | 0.00 | 55 | 1002.6 |
| 20260505070549 | 20 | 131 | 0.0 | 3.2 | 0.00 | 0.00 | 0.00 | 55 | 1002.6 |
| 20260505070049 | 20 | 131 | 3.2 | 3.2 | 0.00 | 0.00 | 0.00 | 55 | 1002.6 |
| 20260505065550 | 20 | 141 | 0.0 | 0.0 | 0.00 | 0.00 | 0.00 | 55 | 1002.7 |
| 20260505065050 | 20 | 141 | 0.0 | 1.6 | 0.00 | 0.00 | 0.00 | 56 | 1002.8 |
| 20260505064549 | 20 | 141 | 0.0 | 1.6 | 0.00 | 0.00 | 0.00 | 56 | 1003.1 |
| 20260505064049 | 20 | 141 | 0.0 | 0.0 | 0.00 | 0.00 | 0.00 | 55 | 1003.1 |
| 20260505063550 | 20 | 141 | 0.0 | 3.2 | 0.00 | 0.00 | 0.00 | 55 | 1002.9 |
| 20260505062549 | 20 | 165 | 0.0 | 4.8 | 0.00 | 0.00 | 0.00 | 55 | 1002.9 |
| 20260505062049 | 20 | 165 | 0.0 | 4.8 | 0.00 | 0.00 | 0.00 | 55 | 1002.8 |
| 20260505061550 | 20 | 165 | 0.0 | 3.2 | 0.00 | 0.00 | 0.00 | 55 | 1002.5 |
| 20260505061049 | 20 | 165 | 0.0 | 8.0 | 0.00 | 0.00 | 0.00 | 55 | 1002.2 |
| 20260505060550 | 20 | 165 | 0.0 | 14.5 | 0.00 | 0.00 | 0.00 | 55 | 1001.9 |
| 20260505055549 | 20 | 151 | 8.0 | 14.5 | 0.00 | 0.00 | 0.00 | 54 | 1001.8 |
| 20260505055049 | 20 | 159 | 8.0 | 14.5 | 0.00 | 0.00 | 0.00 | 54 | 1001.8 |
| 20260505054549 | 20 | 166 | 8.0 | 16.1 | 0.00 | 0.00 | 0.00 | 54 | 1001.9 |
| 20260505054050 | 20 | 175 | 4.8 | 17.7 | 0.00 | 0.00 | 0.00 | 54 | 1001.9 |
| 20260505053549 | 20 | 167 | 8.0 | 14.5 | 0.00 | 0.00 | 0.00 | 54 | 1002.0 |
| 20260505053050 | 20 | 161 | 9.7 | 14.5 | 0.00 | 0.00 | 0.00 | 54 | 1002.1 |
| 20260505052549 | 20 | 166 | 6.4 | 19.3 | 0.00 | 0.00 | 0.00 | 54 | 1002.2 |
| 20260505052049 | 20 | 171 | 9.7 | 14.5 | 0.00 | 0.00 | 0.00 | 54 | 1002.2 |
| 20260505051550 | 20 | 149 | 4.8 | 17.7 | 0.00 | 0.00 | 0.00 | 53 | 1002.3 |
| 20260505051049 | 20 | 160 | 8.0 | 20.9 | 0.00 | 0.00 | 0.00 | 53 | 1002.1 |
| 20260505050550 | 20 | 162 | 8.0 | 20.9 | 0.00 | 0.00 | 0.00 | 53 | 1002.2 |
| 20260505041550 | 20 | 153 | 11.3 | 17.7 | 0.00 | 0.00 | 0.00 | 53 | 1002.2 |
| 20260505041049 | 20 | 186 | 11.3 | 17.7 | 0.00 | 0.00 | 0.00 | 53 | 1002.5 |
| 20260505040549 | 20 | 157 | 3.2 | 22.5 | 0.00 | 0.00 | 0.00 | 53 | 1002.6 |
| 20260505040049 | 20 | 194 | 6.4 | 22.5 | 0.00 | 0.00 | 0.00 | 53 | 1002.5 |
| 20260505035549 | 20 | 182 | 16.1 | 16.1 | 0.00 | 0.00 | 0.00 | 52 | 1002.3 |
| 20260505035050 | 21 | 169 | 6.4 | 24.1 | 0.00 | 0.00 | 0.00 | 51 | 1002.5 |
| 20260505034549 | 21 | 167 | 22.5 | 22.5 | 0.00 | 0.00 | 0.00 | 51 | 1002.7 |
| 20260505034049 | 21 | 174 | 3.2 | 22.5 | 0.00 | 0.00 | 0.00 | 50 | 1002.7 |
| 20260505033549 | 21 | 173 | 9.7 | 22.5 | 0.00 | 0.00 | 0.00 | 50 | 1002.6 |
| 20260505033053 | 21 | 184 | 6.4 | 22.5 | 0.00 | 0.00 | 0.00 | 50 | 1002.9 |
| 20260505032550 | 21 | 165 | 8.0 | 17.7 | 0.00 | 0.00 | 0.00 | 50 | 1002.9 |
| 20260505032049 | 21 | 142 | 4.8 | 14.5 | 0.00 | 0.00 | 0.00 | 50 | 1003.1 |
| 20260505031549 | 21 | 152 | 4.8 | 14.5 | 0.00 | 0.00 | 0.00 | 50 | 1003.0 |
| 20260505030549 | 21 | 163 | 9.7 | 16.1 | 0.00 | 0.00 | 0.00 | 49 | 1003.1 |
| 20260505030049 | 21 | 153 | 4.8 | 12.9 | 0.00 | 0.00 | 0.00 | 49 | 1003.4 |
| 20260505025549 | 21 | 170 | 3.2 | 11.3 | 0.00 | 0.00 | 0.00 | 49 | 1003.4 |
| 20260505025049 | 21 | 157 | 3.2 | 16.1 | 0.00 | 0.00 | 0.00 | 49 | 1003.3 |
| 20260505024550 | 21 | 144 | 4.8 | 16.1 | 0.00 | 0.00 | 0.00 | 49 | 1003.3 |
| 20260505023549 | 21 | 169 | 1.6 | 12.9 | 0.00 | 0.00 | 0.00 | 48 | 1003.5 |
| 20260505023051 | 22 | 162 | 6.4 | 12.9 | 0.00 | 0.00 | 0.00 | 48 | 1003.4 |
| 20260505022549 | 22 | 180 | 6.4 | 16.1 | 0.00 | 0.00 | 0.00 | 47 | 1003.4 |
| 20260505022049 | 22 | 135 | 8.0 | 17.7 | 0.00 | 0.00 | 0.00 | 47 | 1003.3 |
| 20260505021550 | 22 | 170 | 3.2 | 19.3 | 0.00 | 0.00 | 0.00 | 47 | 1003.3 |
| 20260505021049 | 22 | 161 | 3.2 | 20.9 | 0.00 | 0.00 | 0.00 | 47 | 1003.2 |
| 20260505020549 | 22 | 169 | 6.4 | 14.5 | 0.00 | 0.00 | 0.00 | 47 | 1003.4 |
| 20260505020050 | 22 | 156 | 9.7 | 14.5 | 0.00 | 0.00 | 0.00 | 47 | 1003.4 |
| 20260505015550 | 22 | 165 | 11.3 | 17.7 | 0.00 | 0.00 | 0.00 | 47 | 1003.3 |